Location: Mentone
(34.5413°N, 85.5351°W)
Time: 02:08:43
(UTC-06:00)

ADEOS Rocket - Visible Passes

Search period start: 24 February 2017 00:00
Search period end: 06 March 2017 00:00
Orbit: 859 x 1306 km, 98.7° (Epoch: 22 February)

Date Brightness Start Highest point End Pass type
(mag) Time Alt. Az. Time Alt. Az. Time Alt. Az.
24 Feb 5.6 02:25:34 10° NNE 02:26:05 12° NNE 02:26:05 12° NNE visible
25 Feb 5.3 03:22:34 10° N 03:23:31 14° N 03:23:31 14° N visible
26 Feb 5.5 02:33:16 10° NNE 02:33:59 13° NNE 02:33:59 13° NNE visible
27 Feb 5.2 03:30:28 10° N 03:31:24 14° NNW 03:31:24 14° NNW visible
28 Feb 5.4 02:41:00 10° N 02:41:51 14° N 02:41:51 14° N visible
01 Mar 5.2 03:38:25 10° N 03:39:17 13° NNW 03:39:17 13° NNW visible
02 Mar 5.3 02:48:44 10° N 02:49:44 15° N 02:49:44 15° N visible
03 Mar 5.7 02:00:03 10° NNE 02:00:12 11° NNE 02:00:12 11° NNE visible
03 Mar 5.1 03:46:25 10° NNW 03:47:09 13° NNW 03:47:09 13° NNW visible
04 Mar 5.2 02:56:31 10° N 02:57:36 15° N 02:57:36 15° N visible
05 Mar 5.6 02:07:37 10° NNE 02:08:04 12° NNE 02:08:04 12° NNE visible
05 Mar 5.1 03:54:29 10° NNW 03:55:01 12° NNW 03:55:01 12° NNW visible
